Regional Weather Roundup
Issued by NWS

Home | Current Version | Previous Version | Graphics & Text | Print | Product List | Glossary Off
Versions: 1 2 3 4 5 6 7 8 9 10 11 12 13 14 15 16 17 18 19 20 21 22 23 24 25 26 27 28 29 30 31 32 33 34 35 36 37 38 39 40 41 42 43 44 45 46 47 48 49 50

815
ASUS43 KLSX 201057
RWRMO

WEATHER SUMMARY FOR MISSOURI
NATIONAL WEATHER SERVICE SPRINGFIELD MO
500 AM CST FRI JAN 20 2017

NOTE: "FAIR" INDICATES FEW OR NO CLOUDS BELOW 12,000 FEET WITH NO
       SIGNIFICANT WEATHER AND/OR OBSTRUCTIONS TO VISIBILITY.
       CURRENT SKY AND/OR WEATHER CONDITIONS ARE NOT AVAILABLE FOR
       CHILLICOTHE AND FARMINGTON.

MOZ001>031-035>038-043-044-053-054-201200-
...NORTHERN AND WESTERN MISSOURI...

CITY           SKY/WX    TMP DP  RH WIND       PRES   REMARKS
KANSAS CTY INT FOG       45  43  93 SE5       29.56F VSB 1/2
KANSAS C DTWN  CLOUDY    46  45  96 CALM      29.57S FOG
LEE`S SUMMIT   FOG       46  46 100 SE7       29.57S VSB 3/4
ST JOSEPH      CLOUDY    42  42 100 CALM      29.57S FOG
CHILLICOTHE      N/A     41  41 100 CALM      29.58F

$$
MOZ066>068-077>081-088>096-101>105-201200-
...SOUTHWEST MISSOURI...

CITY           SKY/WX    TMP DP  RH WIND       PRES   REMARKS
SPRINGFIELD    CLOUDY    48  47  96 SE6       29.58F FOG
JOPLIN         CLOUDY    49  49 100 SE6       29.57S FOG

$$
MOZ032>034-039>042-045>050-055>058-069>072-201200-
...CENTRAL MISSOURI...

CITY           SKY/WX    TMP DP  RH WIND       PRES   REMARKS
COLUMBIA       NOT AVBL
JEFFERSON CITY FOG       46  46 100 SE3       29.60R VSB 1/2
ROLLA          CLOUDY    48  48 100 S9        29.60R
SEDALIA        FOG       46  45  96 CALM      29.59F VSB 1/4
WARRENSBURG    FOG       45  45 100 S3        29.59R VSB 1/4

$$
MOZ051-052-059>065-201200-
...EAST CENTRAL MISSOURI...

CITY           SKY/WX    TMP DP  RH WIND       PRES   REMARKS
ST LOUIS INTL  FOG       47  45  93 CALM      29.61S VSB 1/4

$$
MOZ072>076-082>087-097>100-106>115-201200-
...SOUTH CENTRAL AND SOUTHEAST MISSOURI...

CITY           SKY/WX    TMP DP  RH WIND       PRES   REMARKS
CAPE GIRARDEAU CLOUDY    51  48  89 SW10      29.66S
POPLAR BLUFF   CLOUDY    50  50 100 S3        29.66F
WEST PLAINS    CLOUDY    49  48  97 CALM      29.63F

$$



USA.gov is the U.S. government's official web portal to all federal, state and local government web resources and services.